#datetime,building,power
2022-01-30T00:01:00,pkn,3.60
2022-01-30T00:03:00,pkn,2.40
2022-01-30T00:04:00,pkn,1.20
2022-01-30T00:06:00,pkn,4.80
2022-01-30T00:08:00,pkn,2.40
2022-01-30T00:10:00,pkn,2.40
2022-01-30T00:12:00,pkn,2.40
2022-01-30T00:14:00,pkn,2.40
2022-01-30T00:16:00,pkn,3.60
2022-01-30T00:18:00,pkn,3.60
2022-01-30T00:20:00,pkn,3.60
2022-01-30T00:22:00,pkn,3.60
2022-01-30T00:24:00,pkn,4.80
2022-01-30T00:25:00,pkn,4.80
2022-01-30T00:27:00,pkn,10.80
2022-01-30T00:29:00,pkn,10.80
2022-01-30T00:30:00,pkn,1.20
2022-01-30T00:31:00,pkn,8.40
2022-01-30T00:32:00,pkn,3.60
2022-01-30T00:33:00,pkn,3.60
2022-01-30T00:34:00,pkn,2.40
2022-01-30T00:36:00,pkn,2.40
2022-01-30T00:38:00,pkn,2.40
2022-01-30T00:39:00,pkn,2.40
2022-01-30T00:40:00,pkn,1.20
2022-01-30T00:42:00,pkn,2.40
2022-01-30T00:44:00,pkn,2.40
2022-01-30T00:46:00,pkn,2.40
2022-01-30T00:47:00,pkn,1.20
2022-01-30T00:48:00,pkn,1.20
2022-01-30T00:50:00,pkn,3.60
2022-01-30T00:51:00,pkn,1.20
2022-01-30T00:53:00,pkn,2.40
2022-01-30T00:55:00,pkn,2.40
2022-01-30T00:57:00,pkn,2.40
2022-01-30T00:59:00,pkn,2.40
2022-01-30T01:00:00,pkn,1.20
2022-01-30T01:02:00,pkn,2.40
2022-01-30T01:04:00,pkn,2.40
2022-01-30T01:06:00,pkn,3.60
2022-01-30T01:08:00,pkn,9.60
2022-01-30T01:10:00,pkn,10.80
2022-01-30T01:12:00,pkn,12.00
2022-01-30T01:14:00,pkn,8.40
2022-01-30T01:16:00,pkn,2.40
2022-01-30T01:18:00,pkn,2.40
2022-01-30T01:20:00,pkn,2.40
2022-01-30T01:22:00,pkn,2.40
2022-01-30T01:24:00,pkn,2.40
2022-01-30T01:26:00,pkn,2.40
2022-01-30T01:27:00,pkn,1.20
2022-01-30T01:29:00,pkn,2.40
2022-01-30T01:31:00,pkn,2.40
2022-01-30T01:33:00,pkn,2.40
2022-01-30T01:34:00,pkn,1.20
2022-01-30T01:36:00,pkn,3.60
2022-01-30T01:38:00,pkn,1.20
2022-01-30T01:40:00,pkn,2.40
2022-01-30T01:42:00,pkn,1.20
2022-01-30T01:43:00,pkn,2.40
2022-01-30T01:45:00,pkn,9.60
2022-01-30T01:46:00,pkn,1.20
2022-01-30T01:47:00,pkn,8.40
2022-01-30T01:48:00,pkn,1.20
2022-01-30T01:49:00,pkn,8.40
2022-01-30T01:50:00,pkn,6.00
2022-01-30T01:52:00,pkn,9.60
2022-01-30T01:54:00,pkn,10.80
2022-01-30T01:56:00,pkn,6.00
2022-01-30T01:59:00,pkn,2.40
2022-01-30T02:01:00,pkn,2.40
2022-01-30T02:04:00,pkn,2.40
2022-01-30T02:06:00,pkn,1.20
2022-01-30T02:07:00,pkn,1.20
2022-01-30T02:09:00,pkn,2.40
2022-01-30T02:10:00,pkn,1.20
2022-01-30T02:12:00,pkn,1.20
2022-01-30T02:14:00,pkn,1.20
2022-01-30T02:16:00,pkn,6.00
2022-01-30T02:18:00,pkn,8.40
2022-01-30T02:20:00,pkn,9.60
2022-01-30T02:22:00,pkn,10.80
2022-01-30T02:24:00,pkn,9.60
2022-01-30T02:26:00,pkn,9.60
2022-01-30T02:27:00,pkn,4.80
2022-01-30T02:29:00,pkn,8.40
2022-01-30T02:31:00,pkn,1.20
2022-01-30T02:33:00,pkn,2.40
2022-01-30T02:35:00,pkn,1.20
2022-01-30T02:37:00,pkn,2.40
2022-01-30T02:38:00,pkn,1.20
2022-01-30T02:40:00,pkn,1.20
2022-01-30T02:42:00,pkn,2.40
2022-01-30T02:44:00,pkn,1.20
2022-01-30T02:45:00,pkn,1.20
2022-01-30T02:46:00,pkn,1.20
2022-01-30T02:48:00,pkn,1.20
2022-01-30T02:50:00,pkn,2.40
2022-01-30T02:52:00,pkn,1.20
2022-01-30T02:55:00,pkn,2.40
2022-01-30T02:57:00,pkn,1.20
2022-01-30T02:58:00,pkn,1.20
2022-01-30T03:00:00,pkn,1.20
2022-01-30T03:02:00,pkn,1.20
2022-01-30T03:04:00,pkn,2.40
2022-01-30T03:06:00,pkn,9.60
2022-01-30T03:08:00,pkn,9.60
2022-01-30T03:10:00,pkn,9.60
2022-01-30T03:11:00,pkn,4.80
2022-01-30T03:13:00,pkn,7.20
2022-01-30T03:14:00,pkn,1.20
2022-01-30T03:16:00,pkn,1.20
2022-01-30T03:17:00,pkn,1.20
2022-01-30T03:19:00,pkn,1.20
2022-01-30T03:21:00,pkn,1.20
2022-01-30T03:23:00,pkn,1.20
2022-01-30T03:25:00,pkn,2.40
2022-01-30T03:27:00,pkn,1.20
2022-01-30T03:29:00,pkn,1.20
2022-01-30T03:31:00,pkn,1.20
2022-01-30T03:33:00,pkn,2.40
2022-01-30T03:35:00,pkn,1.20
2022-01-30T03:36:00,pkn,1.20
2022-01-30T03:39:00,pkn,1.20
2022-01-30T03:41:00,pkn,2.40
2022-01-30T03:44:00,pkn,1.20
2022-01-30T03:46:00,pkn,1.20
2022-01-30T03:47:00,pkn,1.20
2022-01-30T03:49:00,pkn,1.20
2022-01-30T03:51:00,pkn,2.40
2022-01-30T03:53:00,pkn,1.20
2022-01-30T03:56:00,pkn,6.00
2022-01-30T03:58:00,pkn,8.40
2022-01-30T03:59:00,pkn,4.80
2022-01-30T04:01:00,pkn,9.60
2022-01-30T04:03:00,pkn,9.60
2022-01-30T04:04:00,pkn,6.00
2022-01-30T04:06:00,pkn,9.60
2022-01-30T04:08:00,pkn,8.40
2022-01-30T04:10:00,pkn,3.60
2022-01-30T04:12:00,pkn,2.40
2022-01-30T04:14:00,pkn,1.20
2022-01-30T04:15:00,pkn,1.20
2022-01-30T04:17:00,pkn,1.20
2022-01-30T04:19:00,pkn,1.20
2022-01-30T04:22:00,pkn,2.40
2022-01-30T04:24:00,pkn,1.20
2022-01-30T04:26:00,pkn,1.20
2022-01-30T04:27:00,pkn,1.20
2022-01-30T04:29:00,pkn,1.20
2022-01-30T04:31:00,pkn,1.20
2022-01-30T04:33:00,pkn,1.20
2022-01-30T04:35:00,pkn,2.40
2022-01-30T04:37:00,pkn,1.20
2022-01-30T04:39:00,pkn,1.20
2022-01-30T04:41:00,pkn,1.20
2022-01-30T04:43:00,pkn,2.40
2022-01-30T04:44:00,pkn,1.20
2022-01-30T04:46:00,pkn,1.20
2022-01-30T04:48:00,pkn,2.40
2022-01-30T04:50:00,pkn,1.20
2022-01-30T04:51:00,pkn,1.20
2022-01-30T04:53:00,pkn,1.20
2022-01-30T04:55:00,pkn,2.40
2022-01-30T04:57:00,pkn,1.20
2022-01-30T04:58:00,pkn,1.20
2022-01-30T05:00:00,pkn,2.40
2022-01-30T05:03:00,pkn,2.40
2022-01-30T05:05:00,pkn,1.20
2022-01-30T05:07:00,pkn,1.20
2022-01-30T05:09:00,pkn,2.40
2022-01-30T05:11:00,pkn,1.20
2022-01-30T05:13:00,pkn,1.20
2022-01-30T05:15:00,pkn,3.60
2022-01-30T05:17:00,pkn,9.60
2022-01-30T05:19:00,pkn,9.60
2022-01-30T05:20:00,pkn,3.60
2022-01-30T05:21:00,pkn,2.40
2022-01-30T05:22:00,pkn,8.40
2022-01-30T05:23:00,pkn,1.20
2022-01-30T05:24:00,pkn,1.20
2022-01-30T05:25:00,pkn,1.20
2022-01-30T05:27:00,pkn,1.20
2022-01-30T05:28:00,pkn,1.20
2022-01-30T05:30:00,pkn,1.20
2022-01-30T05:32:00,pkn,2.40
2022-01-30T05:34:00,pkn,1.20
2022-01-30T05:36:00,pkn,2.40
2022-01-30T05:38:00,pkn,1.20
2022-01-30T05:39:00,pkn,1.20
2022-01-30T05:41:00,pkn,1.20
2022-01-30T05:43:00,pkn,1.20
2022-01-30T05:45:00,pkn,2.40
2022-01-30T05:47:00,pkn,1.20
2022-01-30T05:49:00,pkn,1.20
2022-01-30T05:51:00,pkn,1.20
2022-01-30T05:53:00,pkn,2.40
2022-01-30T05:55:00,pkn,1.20
2022-01-30T05:57:00,pkn,1.20
2022-01-30T05:59:00,pkn,2.40
2022-01-30T06:01:00,pkn,1.20
2022-01-30T06:03:00,pkn,1.20
2022-01-30T06:04:00,pkn,1.20
2022-01-30T06:06:00,pkn,1.20
2022-01-30T06:08:00,pkn,1.20
2022-01-30T06:09:00,pkn,1.20
2022-01-30T06:10:00,pkn,1.20
2022-01-30T06:12:00,pkn,1.20
2022-01-30T06:14:00,pkn,1.20
2022-01-30T06:16:00,pkn,2.40
2022-01-30T06:18:00,pkn,1.20
2022-01-30T06:20:00,pkn,2.40
2022-01-30T06:22:00,pkn,1.20
2022-01-30T06:24:00,pkn,1.20
2022-01-30T06:25:00,pkn,1.20
2022-01-30T06:27:00,pkn,1.20
2022-01-30T06:29:00,pkn,1.20
2022-01-30T06:31:00,pkn,1.20
2022-01-30T06:33:00,pkn,2.40
2022-01-30T06:35:00,pkn,7.20
2022-01-30T06:36:00,pkn,4.80
2022-01-30T06:38:00,pkn,9.60
2022-01-30T06:39:00,pkn,4.80
2022-01-30T06:41:00,pkn,9.60
2022-01-30T06:43:00,pkn,1.20
2022-01-30T06:45:00,pkn,1.20
2022-01-30T06:47:00,pkn,1.20
2022-01-30T06:49:00,pkn,2.40
2022-01-30T06:51:00,pkn,1.20
2022-01-30T06:53:00,pkn,1.20
2022-01-30T06:54:00,pkn,1.20
2022-01-30T06:56:00,pkn,1.20
2022-01-30T06:58:00,pkn,2.40
2022-01-30T07:00:00,pkn,1.20
2022-01-30T07:02:00,pkn,2.40
2022-01-30T07:04:00,pkn,10.80
2022-01-30T07:06:00,pkn,8.40
2022-01-30T07:08:00,pkn,9.60
2022-01-30T07:10:00,pkn,10.80
2022-01-30T07:12:00,pkn,9.60
2022-01-30T07:13:00,pkn,4.80
2022-01-30T07:15:00,pkn,9.60
2022-01-30T07:17:00,pkn,9.60
2022-01-30T07:18:00,pkn,4.80
2022-01-30T07:20:00,pkn,1.20
2022-01-30T07:22:00,pkn,2.40
2022-01-30T07:24:00,pkn,1.20
2022-01-30T07:26:00,pkn,1.20
2022-01-30T07:28:00,pkn,1.20
2022-01-30T07:30:00,pkn,1.20
2022-01-30T07:32:00,pkn,2.40
2022-01-30T07:34:00,pkn,1.20
2022-01-30T07:36:00,pkn,1.20
2022-01-30T07:39:00,pkn,2.40
2022-01-30T07:42:00,pkn,2.40
2022-01-30T07:43:00,pkn,1.20
2022-01-30T07:45:00,pkn,10.80
2022-01-30T07:47:00,pkn,10.80
2022-01-30T07:49:00,pkn,13.20
2022-01-30T07:50:00,pkn,6.00
2022-01-30T07:52:00,pkn,8.40
2022-01-30T07:54:00,pkn,2.40
2022-01-30T07:56:00,pkn,1.20
2022-01-30T07:58:00,pkn,1.20
2022-01-30T08:00:00,pkn,2.40
2022-01-30T08:02:00,pkn,1.20
2022-01-30T08:03:00,pkn,1.20
2022-01-30T08:05:00,pkn,1.20
2022-01-30T08:07:00,pkn,1.20
2022-01-30T08:09:00,pkn,2.40
2022-01-30T08:12:00,pkn,1.20
2022-01-30T08:14:00,pkn,1.20
2022-01-30T08:16:00,pkn,2.40
2022-01-30T08:17:00,pkn,1.20
2022-01-30T08:19:00,pkn,1.20
2022-01-30T08:21:00,pkn,1.20
2022-01-30T08:23:00,pkn,2.40
2022-01-30T08:25:00,pkn,3.60
2022-01-30T08:27:00,pkn,2.40
2022-01-30T08:29:00,pkn,1.20
2022-01-30T08:32:00,pkn,2.40
2022-01-30T08:34:00,pkn,3.60
2022-01-30T08:36:00,pkn,9.60
2022-01-30T08:38:00,pkn,8.40
2022-01-30T08:40:00,pkn,10.80
2022-01-30T08:41:00,pkn,4.80
2022-01-30T08:43:00,pkn,1.20
2022-01-30T08:45:00,pkn,2.40
2022-01-30T08:47:00,pkn,1.20
2022-01-30T08:49:00,pkn,1.20
2022-01-30T08:51:00,pkn,1.20
2022-01-30T08:53:00,pkn,1.20
2022-01-30T08:55:00,pkn,1.20
2022-01-30T08:57:00,pkn,2.40
2022-01-30T09:00:00,pkn,1.20
2022-01-30T09:02:00,pkn,2.40
2022-01-30T09:04:00,pkn,1.20
2022-01-30T09:06:00,pkn,1.20
2022-01-30T09:08:00,pkn,1.20
2022-01-30T09:10:00,pkn,1.20
2022-01-30T09:11:00,pkn,1.20
2022-01-30T09:13:00,pkn,4.80
2022-01-30T09:15:00,pkn,9.60
2022-01-30T09:17:00,pkn,10.80
2022-01-30T09:18:00,pkn,4.80
2022-01-30T09:20:00,pkn,9.60
2022-01-30T09:21:00,pkn,3.60
2022-01-30T09:23:00,pkn,3.60
2022-01-30T09:25:00,pkn,1.20
2022-01-30T09:27:00,pkn,1.20
2022-01-30T09:29:00,pkn,1.20
2022-01-30T09:32:00,pkn,2.40
2022-01-30T09:35:00,pkn,1.20
2022-01-30T09:37:00,pkn,1.20
2022-01-30T09:39:00,pkn,2.40
2022-01-30T09:43:00,pkn,2.40
2022-01-30T09:46:00,pkn,1.20
2022-01-30T09:47:00,pkn,1.20
2022-01-30T09:49:00,pkn,1.20
2022-01-30T09:51:00,pkn,1.20
2022-01-30T09:53:00,pkn,1.20
2022-01-30T09:54:00,pkn,1.20
2022-01-30T09:57:00,pkn,2.40
2022-01-30T09:59:00,pkn,9.60
2022-01-30T10:01:00,pkn,8.40
2022-01-30T10:03:00,pkn,9.59
2022-01-30T10:05:00,pkn,9.60
2022-01-30T10:07:00,pkn,6.00
2022-01-30T10:09:00,pkn,1.20
2022-01-30T10:11:00,pkn,1.20
2022-01-30T10:13:00,pkn,1.20
2022-01-30T10:15:00,pkn,1.20
2022-01-30T10:17:00,pkn,1.20
2022-01-30T10:19:00,pkn,2.40
2022-01-30T10:21:00,pkn,1.20
2022-01-30T10:22:00,pkn,1.20
2022-01-30T10:24:00,pkn,1.20
2022-01-30T10:26:00,pkn,1.20
2022-01-30T10:28:00,pkn,1.20
2022-01-30T10:29:00,pkn,1.20
2022-01-30T10:31:00,pkn,1.20
2022-01-30T10:33:00,pkn,1.20
2022-01-30T10:35:00,pkn,1.20
2022-01-30T10:37:00,pkn,6.00
2022-01-30T10:39:00,pkn,9.60
2022-01-30T10:41:00,pkn,10.80
2022-01-30T10:43:00,pkn,8.40
2022-01-30T10:45:00,pkn,9.60
2022-01-30T10:47:00,pkn,9.60
2022-01-30T10:49:00,pkn,10.80
2022-01-30T10:50:00,pkn,4.80
2022-01-30T10:53:00,pkn,2.40
2022-01-30T10:55:00,pkn,2.40
2022-01-30T10:57:00,pkn,1.20
2022-01-30T10:59:00,pkn,2.40
2022-01-30T11:01:00,pkn,2.40
2022-01-30T11:03:00,pkn,1.20
2022-01-30T11:05:00,pkn,2.40
2022-01-30T11:07:00,pkn,3.60
2022-01-30T11:09:00,pkn,7.20
2022-01-30T11:11:00,pkn,7.20
2022-01-30T11:13:00,pkn,3.60
2022-01-30T11:14:00,pkn,2.40
2022-01-30T11:15:00,pkn,1.20
2022-01-30T11:17:00,pkn,2.40
2022-01-30T11:18:00,pkn,2.40
2022-01-30T11:20:00,pkn,4.80
2022-01-30T11:21:00,pkn,2.40
2022-01-30T11:22:00,pkn,4.80
2022-01-30T11:24:00,pkn,10.80
2022-01-30T11:25:00,pkn,4.80
2022-01-30T11:27:00,pkn,9.60
2022-01-30T11:29:00,pkn,10.80
2022-01-30T11:31:00,pkn,2.40
2022-01-30T11:32:00,pkn,1.20
2022-01-30T11:34:00,pkn,1.20
2022-01-30T11:36:00,pkn,2.40
2022-01-30T11:38:00,pkn,2.40
2022-01-30T11:40:00,pkn,1.20
2022-01-30T11:42:00,pkn,2.40
2022-01-30T11:43:00,pkn,1.20
2022-01-30T11:45:00,pkn,3.60
2022-01-30T11:46:00,pkn,1.20
2022-01-30T11:48:00,pkn,4.80
2022-01-30T11:50:00,pkn,3.60
2022-01-30T11:52:00,pkn,2.40
2022-01-30T11:54:00,pkn,1.20
2022-01-30T11:55:00,pkn,1.20
2022-01-30T11:57:00,pkn,2.40
2022-01-30T11:59:00,pkn,2.40
2022-01-30T12:01:00,pkn,2.40
2022-01-30T12:03:00,pkn,3.60
2022-01-30T12:04:00,pkn,4.80
2022-01-30T12:05:00,pkn,5.99
2022-01-30T12:07:00,pkn,9.60
2022-01-30T12:09:00,pkn,10.80
2022-01-30T12:11:00,pkn,13.20
2022-01-30T12:12:00,pkn,2.40
2022-01-30T12:14:00,pkn,2.40
2022-01-30T12:16:00,pkn,2.40
2022-01-30T12:18:00,pkn,2.40
2022-01-30T12:19:00,pkn,2.40
2022-01-30T12:21:00,pkn,2.40
2022-01-30T12:23:00,pkn,2.40
2022-01-30T12:25:00,pkn,1.20
2022-01-30T12:27:00,pkn,2.40
2022-01-30T12:29:00,pkn,3.60
2022-01-30T12:31:00,pkn,2.40
2022-01-30T12:32:00,pkn,1.20
2022-01-30T12:34:00,pkn,3.60
2022-01-30T12:36:00,pkn,2.40
2022-01-30T12:38:00,pkn,1.20
2022-01-30T12:40:00,pkn,2.40
2022-01-30T12:41:00,pkn,1.20
2022-01-30T12:43:00,pkn,2.40
2022-01-30T12:44:00,pkn,1.20
2022-01-30T12:46:00,pkn,3.60
2022-01-30T12:48:00,pkn,2.40
2022-01-30T12:50:00,pkn,7.20
2022-01-30T12:52:00,pkn,10.80
2022-01-30T12:54:00,pkn,10.80
2022-01-30T12:55:00,pkn,3.60
2022-01-30T12:57:00,pkn,9.60
2022-01-30T12:58:00,pkn,1.20
2022-01-30T13:00:00,pkn,1.20
2022-01-30T13:02:00,pkn,2.40
2022-01-30T13:04:00,pkn,2.40
2022-01-30T13:06:00,pkn,1.20
2022-01-30T13:08:00,pkn,2.40
2022-01-30T13:11:00,pkn,2.40
2022-01-30T13:13:00,pkn,1.20
2022-01-30T13:15:00,pkn,2.40
2022-01-30T13:17:00,pkn,8.40
2022-01-30T13:18:00,pkn,4.80
2022-01-30T13:20:00,pkn,9.60
2022-01-30T13:22:00,pkn,10.80
2022-01-30T13:24:00,pkn,9.60
2022-01-30T13:26:00,pkn,9.60
2022-01-30T13:28:00,pkn,10.80
2022-01-30T13:30:00,pkn,7.20
2022-01-30T13:32:00,pkn,2.40
2022-01-30T13:34:00,pkn,2.40
2022-01-30T13:36:00,pkn,1.20
2022-01-30T13:37:00,pkn,1.20
2022-01-30T13:39:00,pkn,2.40
2022-01-30T13:41:00,pkn,1.20
2022-01-30T13:43:00,pkn,2.40
2022-01-30T13:44:00,pkn,1.20
2022-01-30T13:46:00,pkn,2.40
2022-01-30T13:49:00,pkn,2.40
2022-01-30T13:50:00,pkn,1.20
2022-01-30T13:52:00,pkn,3.60
2022-01-30T13:54:00,pkn,12.00
2022-01-30T13:55:00,pkn,3.60
2022-01-30T13:56:00,pkn,8.40
2022-01-30T13:57:00,pkn,12.00
2022-01-30T13:58:00,pkn,8.40
2022-01-30T14:00:00,pkn,10.80
2022-01-30T14:02:00,pkn,9.60
2022-01-30T14:04:00,pkn,9.60
2022-01-30T14:06:00,pkn,4.80
2022-01-30T14:07:00,pkn,1.20
2022-01-30T14:09:00,pkn,2.40
2022-01-30T14:10:00,pkn,1.20
2022-01-30T14:12:00,pkn,1.20
2022-01-30T14:14:00,pkn,2.40
2022-01-30T14:15:00,pkn,1.20
2022-01-30T14:17:00,pkn,2.40
2022-01-30T14:19:00,pkn,1.20
2022-01-30T14:21:00,pkn,2.40
2022-01-30T14:23:00,pkn,2.40
2022-01-30T14:24:00,pkn,1.20
2022-01-30T14:26:00,pkn,2.40
2022-01-30T14:27:00,pkn,1.20
2022-01-30T14:29:00,pkn,1.20
2022-01-30T14:31:00,pkn,2.40
2022-01-30T14:32:00,pkn,1.20
2022-01-30T14:34:00,pkn,10.80
2022-01-30T14:36:00,pkn,9.60
2022-01-30T14:37:00,pkn,4.80
2022-01-30T14:38:00,pkn,4.80
2022-01-30T14:40:00,pkn,9.60
2022-01-30T14:41:00,pkn,6.00
2022-01-30T14:43:00,pkn,8.40
2022-01-30T14:44:00,pkn,6.00
2022-01-30T14:46:00,pkn,10.80
2022-01-30T14:48:00,pkn,9.60
2022-01-30T14:49:00,pkn,4.80
2022-01-30T14:50:00,pkn,4.80
2022-01-30T14:52:00,pkn,10.80
2022-01-30T14:54:00,pkn,12.00
2022-01-30T14:56:00,pkn,13.20
2022-01-30T14:58:00,pkn,14.40
2022-01-30T15:00:00,pkn,12.00
2022-01-30T15:02:00,pkn,12.00
2022-01-30T15:04:00,pkn,12.00
2022-01-30T15:06:00,pkn,10.80
2022-01-30T15:07:00,pkn,6.00
2022-01-30T15:09:00,pkn,9.60
2022-01-30T15:10:00,pkn,4.80
2022-01-30T15:12:00,pkn,10.80
2022-01-30T15:14:00,pkn,9.60
2022-01-30T15:15:00,pkn,4.80
2022-01-30T15:16:00,pkn,3.60
2022-01-30T15:18:00,pkn,10.80
2022-01-30T15:19:00,pkn,6.00
2022-01-30T15:21:00,pkn,8.40
2022-01-30T15:22:00,pkn,6.00
2022-01-30T15:24:00,pkn,9.60
2022-01-30T15:26:00,pkn,8.40
2022-01-30T15:28:00,pkn,1.20
2022-01-30T15:29:00,pkn,1.20
2022-01-30T15:31:00,pkn,1.20
2022-01-30T15:32:00,pkn,1.20
2022-01-30T15:34:00,pkn,1.20
2022-01-30T15:36:00,pkn,1.20
2022-01-30T15:38:00,pkn,1.20
2022-01-30T15:40:00,pkn,4.80
2022-01-30T15:41:00,pkn,4.80
2022-01-30T15:43:00,pkn,9.60
2022-01-30T15:45:00,pkn,9.60
2022-01-30T15:47:00,pkn,9.60
2022-01-30T15:49:00,pkn,9.60
2022-01-30T15:51:00,pkn,9.60
2022-01-30T15:52:00,pkn,4.80
2022-01-30T15:53:00,pkn,2.40
2022-01-30T15:55:00,pkn,1.20
2022-01-30T15:57:00,pkn,1.20
2022-01-30T15:59:00,pkn,2.40
2022-01-30T16:02:00,pkn,2.40
2022-01-30T16:04:00,pkn,1.20
2022-01-30T16:06:00,pkn,1.20
2022-01-30T16:07:00,pkn,1.20
2022-01-30T16:09:00,pkn,1.20
2022-01-30T16:11:00,pkn,4.80
2022-01-30T16:13:00,pkn,8.40
2022-01-30T16:15:00,pkn,9.60
2022-01-30T16:17:00,pkn,9.60
2022-01-30T16:18:00,pkn,4.80
2022-01-30T16:20:00,pkn,13.20
2022-01-30T16:22:00,pkn,12.00
2022-01-30T16:24:00,pkn,12.00
2022-01-30T16:26:00,pkn,10.80
2022-01-30T16:27:00,pkn,2.40
2022-01-30T16:29:00,pkn,2.40
2022-01-30T16:30:00,pkn,2.40
2022-01-30T16:32:00,pkn,4.80
2022-01-30T16:34:00,pkn,4.80
2022-01-30T16:36:00,pkn,3.60
2022-01-30T16:38:00,pkn,2.40
2022-01-30T16:39:00,pkn,1.20
2022-01-30T16:41:00,pkn,2.40
2022-01-30T16:42:00,pkn,1.20
2022-01-30T16:44:00,pkn,2.40
2022-01-30T16:46:00,pkn,2.40
2022-01-30T16:48:00,pkn,2.40
2022-01-30T16:50:00,pkn,2.40
2022-01-30T16:51:00,pkn,2.40
2022-01-30T16:53:00,pkn,2.40
2022-01-30T16:54:00,pkn,1.20
2022-01-30T16:56:00,pkn,2.40
2022-01-30T16:57:00,pkn,3.60
2022-01-30T16:59:00,pkn,12.00
2022-01-30T17:01:00,pkn,10.80
2022-01-30T17:03:00,pkn,9.60
2022-01-30T17:04:00,pkn,6.00
2022-01-30T17:06:00,pkn,9.60
2022-01-30T17:07:00,pkn,6.00
2022-01-30T17:09:00,pkn,10.80
2022-01-30T17:11:00,pkn,9.60
2022-01-30T17:13:00,pkn,1.20
2022-01-30T17:15:00,pkn,2.40
2022-01-30T17:16:00,pkn,1.20
2022-01-30T17:18:00,pkn,2.40
2022-01-30T17:20:00,pkn,2.40
2022-01-30T17:22:00,pkn,2.40
2022-01-30T17:24:00,pkn,2.40
2022-01-30T17:26:00,pkn,2.40
2022-01-30T17:28:00,pkn,2.40
2022-01-30T17:30:00,pkn,2.40
2022-01-30T17:32:00,pkn,2.40
2022-01-30T17:34:00,pkn,2.40
2022-01-30T17:36:00,pkn,2.40
2022-01-30T17:38:00,pkn,2.40
2022-01-30T17:40:00,pkn,2.40
2022-01-30T17:42:00,pkn,1.20
2022-01-30T17:44:00,pkn,2.40
2022-01-30T17:46:00,pkn,2.40
2022-01-30T17:48:00,pkn,2.40
2022-01-30T17:50:00,pkn,2.40
2022-01-30T17:52:00,pkn,2.40
2022-01-30T17:54:00,pkn,2.40
2022-01-30T17:56:00,pkn,2.40
2022-01-30T17:58:00,pkn,2.40
2022-01-30T18:00:00,pkn,3.60
2022-01-30T18:01:00,pkn,6.00
2022-01-30T18:03:00,pkn,9.60
2022-01-30T18:05:00,pkn,10.80
2022-01-30T18:07:00,pkn,10.80
2022-01-30T18:09:00,pkn,6.00
2022-01-30T18:10:00,pkn,1.20
2022-01-30T18:12:00,pkn,2.40
2022-01-30T18:14:00,pkn,2.40
2022-01-30T18:16:00,pkn,2.40
2022-01-30T18:19:00,pkn,2.40
2022-01-30T18:20:00,pkn,1.20
2022-01-30T18:22:00,pkn,2.40
2022-01-30T18:24:00,pkn,2.40
2022-01-30T18:26:00,pkn,2.40
2022-01-30T18:28:00,pkn,2.40
2022-01-30T18:29:00,pkn,1.20
2022-01-30T18:30:00,pkn,1.20
2022-01-30T18:32:00,pkn,2.40
2022-01-30T18:34:00,pkn,1.20
2022-01-30T18:36:00,pkn,2.40
2022-01-30T18:38:00,pkn,2.40
2022-01-30T18:40:00,pkn,2.40
2022-01-30T18:42:00,pkn,2.40
2022-01-30T18:44:00,pkn,2.40
2022-01-30T18:46:00,pkn,2.40
2022-01-30T18:48:00,pkn,1.20
2022-01-30T18:50:00,pkn,2.40
2022-01-30T18:51:00,pkn,1.20
2022-01-30T18:53:00,pkn,2.40
2022-01-30T18:55:00,pkn,2.40
2022-01-30T18:56:00,pkn,1.20
2022-01-30T18:58:00,pkn,9.60
2022-01-30T19:00:00,pkn,10.80
2022-01-30T19:02:00,pkn,10.80
2022-01-30T19:04:00,pkn,9.60
2022-01-30T19:06:00,pkn,9.59
2022-01-30T19:08:00,pkn,7.20
2022-01-30T19:10:00,pkn,2.40
2022-01-30T19:11:00,pkn,1.20
2022-01-30T19:13:00,pkn,2.40
2022-01-30T19:14:00,pkn,2.40
2022-01-30T19:16:00,pkn,6.00
2022-01-30T19:17:00,pkn,3.60
2022-01-30T19:19:00,pkn,4.80
2022-01-30T19:21:00,pkn,3.60
2022-01-30T19:22:00,pkn,2.40
2022-01-30T19:24:00,pkn,4.80
2022-01-30T19:26:00,pkn,4.80
2022-01-30T19:28:00,pkn,3.60
2022-01-30T19:30:00,pkn,2.40
2022-01-30T19:32:00,pkn,2.40
2022-01-30T19:34:00,pkn,2.40
2022-01-30T19:36:00,pkn,2.40
2022-01-30T19:38:00,pkn,1.20
2022-01-30T19:40:00,pkn,2.40
2022-01-30T19:42:00,pkn,2.40
2022-01-30T19:43:00,pkn,1.20
2022-01-30T19:45:00,pkn,1.20
2022-01-30T19:47:00,pkn,6.00
2022-01-30T19:49:00,pkn,10.80
2022-01-30T19:51:00,pkn,8.40
2022-01-30T19:53:00,pkn,10.80
2022-01-30T19:55:00,pkn,7.20
2022-01-30T19:58:00,pkn,2.40
2022-01-30T19:59:00,pkn,1.20
2022-01-30T20:01:00,pkn,2.40
2022-01-30T20:03:00,pkn,2.40
2022-01-30T20:06:00,pkn,2.40
2022-01-30T20:08:00,pkn,2.40
2022-01-30T20:10:00,pkn,1.20
2022-01-30T20:12:00,pkn,2.40
2022-01-30T20:14:00,pkn,2.40
2022-01-30T20:15:00,pkn,1.20
2022-01-30T20:17:00,pkn,2.40
2022-01-30T20:19:00,pkn,2.40
2022-01-30T20:21:00,pkn,2.40
2022-01-30T20:23:00,pkn,2.40
2022-01-30T20:25:00,pkn,2.40
2022-01-30T20:27:00,pkn,3.60
2022-01-30T20:28:00,pkn,1.20
2022-01-30T20:29:00,pkn,1.20
2022-01-30T20:30:00,pkn,1.20
2022-01-30T20:32:00,pkn,2.40
2022-01-30T20:34:00,pkn,2.40
2022-01-30T20:36:00,pkn,10.80
2022-01-30T20:38:00,pkn,10.80
2022-01-30T20:39:00,pkn,4.80
2022-01-30T20:41:00,pkn,10.80
2022-01-30T20:43:00,pkn,6.00
2022-01-30T20:45:00,pkn,2.40
2022-01-30T20:47:00,pkn,2.40
2022-01-30T20:49:00,pkn,2.40
2022-01-30T20:51:00,pkn,2.40
2022-01-30T20:53:00,pkn,2.40
2022-01-30T20:55:00,pkn,2.40
2022-01-30T20:57:00,pkn,3.60
2022-01-30T20:58:00,pkn,1.20
2022-01-30T21:00:00,pkn,2.40
2022-01-30T21:02:00,pkn,2.40
2022-01-30T21:04:00,pkn,2.40
2022-01-30T21:06:00,pkn,2.40
2022-01-30T21:08:00,pkn,2.40
2022-01-30T21:10:00,pkn,3.60
2022-01-30T21:11:00,pkn,1.20
2022-01-30T21:13:00,pkn,2.40
2022-01-30T21:15:00,pkn,2.40
2022-01-30T21:17:00,pkn,2.40
2022-01-30T21:19:00,pkn,2.40
2022-01-30T21:20:00,pkn,1.20
2022-01-30T21:22:00,pkn,2.40
2022-01-30T21:23:00,pkn,2.40
2022-01-30T21:25:00,pkn,2.40
2022-01-30T21:28:00,pkn,3.60
2022-01-30T21:30:00,pkn,2.40
2022-01-30T21:32:00,pkn,2.40
2022-01-30T21:34:00,pkn,8.40
2022-01-30T21:36:00,pkn,9.60
2022-01-30T21:38:00,pkn,10.80
2022-01-30T21:39:00,pkn,4.80
2022-01-30T21:41:00,pkn,9.60
2022-01-30T21:43:00,pkn,2.40
2022-01-30T21:44:00,pkn,1.20
2022-01-30T21:46:00,pkn,2.40
2022-01-30T21:48:00,pkn,3.60
2022-01-30T21:50:00,pkn,2.40
2022-01-30T21:51:00,pkn,1.20
2022-01-30T21:53:00,pkn,2.40
2022-01-30T21:55:00,pkn,2.40
2022-01-30T21:57:00,pkn,3.60
2022-01-30T21:59:00,pkn,3.60
2022-01-30T22:01:00,pkn,10.80
2022-01-30T22:02:00,pkn,6.00
2022-01-30T22:04:00,pkn,9.60
2022-01-30T22:06:00,pkn,10.80
2022-01-30T22:07:00,pkn,4.80
2022-01-30T22:09:00,pkn,10.80
2022-01-30T22:11:00,pkn,10.80
2022-01-30T22:13:00,pkn,10.80
2022-01-30T22:15:00,pkn,10.80
2022-01-30T22:16:00,pkn,4.80
2022-01-30T22:18:00,pkn,14.40
2022-01-30T22:20:00,pkn,15.60
2022-01-30T22:22:00,pkn,13.20
2022-01-30T22:23:00,pkn,8.40
2022-01-30T22:25:00,pkn,4.80
2022-01-30T22:26:00,pkn,1.20
2022-01-30T22:28:00,pkn,4.80
2022-01-30T22:30:00,pkn,3.60
2022-01-30T22:32:00,pkn,2.40
2022-01-30T22:34:00,pkn,2.40
2022-01-30T22:35:00,pkn,2.40
2022-01-30T22:37:00,pkn,2.40
2022-01-30T22:39:00,pkn,2.40
2022-01-30T22:41:00,pkn,10.80
2022-01-30T22:43:00,pkn,9.60
2022-01-30T22:45:00,pkn,10.80
2022-01-30T22:47:00,pkn,13.20
2022-01-30T22:49:00,pkn,10.80
2022-01-30T22:51:00,pkn,10.80
2022-01-30T22:53:00,pkn,10.80
2022-01-30T22:55:00,pkn,10.80
2022-01-30T22:57:00,pkn,13.20
2022-01-30T22:59:00,pkn,13.20
2022-01-30T23:01:00,pkn,10.80
2022-01-30T23:03:00,pkn,10.80
2022-01-30T23:04:00,pkn,6.00
2022-01-30T23:06:00,pkn,4.80
2022-01-30T23:08:00,pkn,2.40
2022-01-30T23:10:00,pkn,3.60
2022-01-30T23:12:00,pkn,2.40
2022-01-30T23:14:00,pkn,2.40
2022-01-30T23:15:00,pkn,1.20
2022-01-30T23:17:00,pkn,2.40
2022-01-30T23:18:00,pkn,1.20
2022-01-30T23:20:00,pkn,2.40
2022-01-30T23:21:00,pkn,9.60
2022-01-30T23:23:00,pkn,12.00
2022-01-30T23:24:00,pkn,4.80
2022-01-30T23:26:00,pkn,10.80
2022-01-30T23:28:00,pkn,10.80
2022-01-30T23:30:00,pkn,9.60
2022-01-30T23:31:00,pkn,6.00
2022-01-30T23:33:00,pkn,9.60
2022-01-30T23:35:00,pkn,3.60
2022-01-30T23:37:00,pkn,2.40
2022-01-30T23:39:00,pkn,2.40
2022-01-30T23:41:00,pkn,2.40
2022-01-30T23:43:00,pkn,3.60
2022-01-30T23:46:00,pkn,6.00
2022-01-30T23:48:00,pkn,9.60
2022-01-30T23:50:00,pkn,10.80
2022-01-30T23:51:00,pkn,4.80
2022-01-30T23:53:00,pkn,9.60
2022-01-30T23:55:00,pkn,10.80
2022-01-30T23:57:00,pkn,10.80
2022-01-30T23:58:00,pkn,4.80
